Regional Weather Roundup
Issued by NWS

Home | Current Version | Previous Version | Graphics & Text | Print | Product List | Glossary On
Versions: 1 2 3 4 5 6 7 8 9 10 11 12 13 14 15 16 17 18 19 20 21 22 23 24 25 26 27 28 29 30 31 32 33 34 35 36 37 38 39 40 41 42 43 44 45 46 47 48 49 50
000
ASUS43 KTOP 061459
RWRKS

WEATHER ROUNDUP FOR KANSAS
NATIONAL WEATHER SERVICE GOODLAND KS
900 AM CST SAT FEB 06 2016

NOTE:  "FAIR" INDICATES FEW OR NO CLOUDS BELOW 12,000 FEET WITH NO
SIGNIFICANT WEATHER AND/OR OBSTRUCTIONS TO VISIBILITY.

KSZ001>006-013>018-027>032-041>047-061600-
NORTHWEST KANSAS

CITY           SKY/WX    TMP DP  RH WIND       PRES   REMARKS
GOODLAND       CLOUDY    22  10  60 SW13      30.22F WCI  10
HAYS           CLOUDY    21   7  53 W10       30.31R WCI  10
HILL CITY      CLOUDY    19  10  68 W8        30.28F
RUSSELL        SUNNY     20  16  84 W7        30.30R
$$

KSZ061>065-074>080-084>089-061600-
SOUTHWEST KANSAS

CITY           SKY/WX    TMP DP  RH WIND       PRES   REMARKS
DODGE CITY     SUNNY     25  16  68 W12       30.32R WCI  14
ELKHART          N/A     25  13  60 W9          N/A
GARDEN CITY    SUNNY     24  17  74 W6        30.31S
GREAT BEND     SUNNY     25  16  68 W8        30.33R
LIBERAL        SUNNY     25  18  74 NW9       30.33S
$$

KSZ066>073-081>083-090>101-061600-
SOUTHEAST KANSAS

CITY           SKY/WX    TMP DP  RH WIND       PRES   REMARKS
CHANUTE        SUNNY     33  27  78 N6        30.33S
COFFEYVILLE    MOSUNNY   38  28  67 NW7       30.36R
HUTCHINSON     SUNNY     28  23  81 NW8       30.33S
MEDICINE LODGE   N/A     27  22  81 NW7       30.34S
NEWTON         SUNNY     28  23  80 W8        30.34R
PARSONS        SUNNY     35  27  72 NW6       30.35R
WICHITA INTL   SUNNY     32  26  78 NW7       30.34R
WICHITA JABRA  SUNNY     30  27  88 W8        30.33R
WINFIELD       SUNNY     33  28  81 NW6       30.35R
$$

KSZ007>012-019>026-033>040-048>060-102>105-061600-
NORTHEAST KANSAS

CITY           SKY/WX    TMP DP  RH WIND       PRES   REMARKS
CONCORDIA      SUNNY     26  22  84 W7        30.30R
EMPORIA        SUNNY     30  27  88 W5        30.31R
LAWRENCE       SUNNY     29  25  85 NW5       30.31S
MANHATTAN      SUNNY     28  26  92 SW6       30.33R
OLATHE IND     SUNNY     30  26  85 W3        30.30F
OLATHE EXE     SUNNY     33  26  75 CALM      30.29F
SALINA         SUNNY     30  24  78 CALM      30.33S
TOPEKA BILLARD SUNNY     31  27  85 W3        30.32R
TOPEKA FORBES  SUNNY     32  27  81 W3        30.30R
$$



USA.gov is the U.S. government's official web portal to all federal, state and local government web resources and services.